Change the Weather History Date:

Saturday, November 17, 2012

  Actual Average (KMLT) Record (KMLT)
Temperature  
Mean Temperature 30 °F 34 °F  
Max Temperature 34 °F 41 °F 64 °F (1989)
Min Temperature 24 °F 27 °F -7 °F (1916)
Degree Days  
Heating Degree Days 35 31  
Month to date heating degree days 472  
Since 1 July heating degree days 1406  
Cooling Degree Days 0 0  
Month to date cooling degree days 0  
Year to date cooling degree days 268  
Moisture  
Dew Point 18 °F    
Average Humidity 65    
Maximum Humidity 85    
Minimum Humidity 43    
Precipitation  
Precipitation 0.00 in 0.16 in 1.19 in (1921)
Month to date precipitation 2.27  
Year to date precipitation 36.99  
Sea Level Pressure  
Sea Level Pressure 30.57 in    
Wind  
Wind Speed 9 mph (NNW)    
Max Wind Speed 14 mph    
Max Gust Speed 23 mph    
T = Trace of Precipitation, MM = Missing Value Source: NWS Daily Summary

Daily Weather History Graph

Daily Weather History Graph

Search for Another Location

Airport or City:

Trip Planner

Search our weather history database for the weather conditions in past years. The results will help you decide how hot, cold, wet, or windy it might be!

Date:

Astronomy

Nov. 17, 2012 Rise Set
Actual Time 6:40 AM EST 4:05 PM EST
Civil Twilight 6:08 AM EST 4:38 PM EST
Nautical Twilight 5:32 AM EST 5:14 PM EST
Astronomical Twilight 4:57 AM EST 5:49 PM EST
Moon 10:23 AM EST (11/17) 8:12 PM EST (11/17)
Length of Visible Light 10h 29m
Length of Day
9h 25m
Waxing Crescent, 20% of the Moon is Illuminated
Nov 17
Waxing Crescent
Nov 20
First Quarter
Nov 28
Full
Dec 6
Last Quarter
Dec 13
New

Hourly Weather History & Observations

Time (EST) Temp. Windchill Dew Point Humidity Pressure Visibility Wind Dir Wind Speed Gust Speed Precip Events Conditions
12:56 AM 30.0 °F 21.1 °F 26.1 °F 85% 30.41 in - NW 10.4 mph 23.0 mph N/A   Unknown
1:56 AM 30.0 °F 21.1 °F 26.1 °F 85% 30.43 in - NW 10.4 mph 19.6 mph N/A   Unknown
2:56 AM 28.9 °F 19.8 °F 25.0 °F 85% 30.43 in - NW 10.4 mph 21.9 mph N/A   Unknown
3:56 AM 28.9 °F 21.9 °F 23.0 °F 78% 30.46 in - Variable 6.9 mph 19.6 mph N/A   Unknown
4:56 AM 28.9 °F 19.8 °F 23.0 °F 78% 30.48 in - NW 10.4 mph 19.6 mph N/A   Unknown
5:56 AM 28.0 °F 18.6 °F 23.0 °F 81% 30.50 in - NNW 10.4 mph 18.4 mph N/A   Unknown
6:56 AM 28.0 °F 18.6 °F 21.9 °F 78% 30.53 in - NW 10.4 mph - N/A   Unknown
7:56 AM 27.0 °F 15.6 °F 19.0 °F 72% 30.56 in - North 13.8 mph - N/A   Unknown
8:56 AM 27.0 °F 16.7 °F 18.0 °F 69% 30.58 in - North 11.5 mph 19.6 mph N/A   Unknown
9:56 AM 28.0 °F 18.6 °F 17.1 °F 63% 30.60 in - NNW 10.4 mph 16.1 mph N/A   Unknown
10:56 AM 30.0 °F 21.7 °F 18.0 °F 61% 30.59 in - NW 9.2 mph - N/A   Unknown
11:56 AM 30.9 °F 22.8 °F 18.0 °F 59% 30.58 in - North 9.2 mph - N/A   Unknown
12:56 PM 33.1 °F 27.7 °F 18.0 °F 54% 30.57 in - Variable 5.8 mph - N/A   Unknown
1:56 PM 34.0 °F 27.2 °F 19.0 °F 54% 30.57 in - NNW 8.1 mph - N/A   Unknown
2:56 PM 33.1 °F 26.9 °F 17.1 °F 52% 30.58 in - NNW 6.9 mph - N/A   Unknown
3:56 PM 32.0 °F 26.4 °F 16.0 °F 52% 30.59 in - North 5.8 mph - N/A   Unknown
4:56 PM 30.9 °F 23.5 °F 10.9 °F 43% 30.61 in - NNW 8.1 mph - N/A   Unknown
5:56 PM 30.0 °F 23.2 °F 14.0 °F 51% 30.63 in - NNW 6.9 mph - N/A   Unknown
6:56 PM 30.0 °F 24.1 °F 12.9 °F 49% 30.64 in - NNW 5.8 mph - N/A   Unknown
7:56 PM 28.9 °F 21.9 °F 14.0 °F 54% 30.65 in - NW 6.9 mph - N/A   Unknown
8:56 PM 28.0 °F 20.0 °F 14.0 °F 56% 30.66 in - NNW 8.1 mph - N/A   Unknown
9:56 PM 27.0 °F 21.6 °F 15.1 °F 61% 30.67 in - NNW 4.6 mph - N/A   Unknown
10:56 PM 26.1 °F 19.4 °F 16.0 °F 66% 30.67 in - North 5.8 mph - N/A   Unknown
11:56 PM 24.1 °F 18.2 °F 15.1 °F 69% 30.67 in - NNW 4.6 mph - N/A   Unknown